CZ-6A DEB, 61430

Orbit data source: Space-Track

CZ-6A DEB, 61430 is space debris in LEO originally from a launch on Tue, 06 Aug 2024 UTC launched from the Taiyaun Space Center, China (TSC). Debris objects in space refer to the collection of defunct objects orbiting the Earth. Examples of debris include non-operational satellites, rocket bodies, and fragments generated from explosions, collisions, or faulty payload assembly.

Loading next visibility...
Identifier
61430, 2024-140YX
Orbit
LEO
Country
Flag of CNCN / PRC
Related business
Manufacturer
SAST
Mission
Spacecraft
Bus & Motor
Unknown
Mass
Unknown
Launch date (UTC)
2024-08-06 (2 years ago)
Launch vehicle
Unknown
Launch site
Taiyaun Space Center, China (TSC)
Object type
Payload
Rocket body
Debris
Shape & HBR
Unknown shape, 0.2 m
Radar Cross Section
Medium (>0.1 m² and <1 m²)

Expand to show TLE details & history
Last TLE update: 14 hours ago

TLE from 14 hours ago
0 CZ-6A DEB
1 61430U 24140YX  26171.27957356  .00000492  00000-0  25075-3 0  9993
2 61430  89.0499 279.1607 0079412 190.3776 169.5775 14.12644743 94204
Epoch: 2026-06-20T06:42Z
TLE epoch observation values (Epoch: 2026-06-20T06:42:35.155Z)
Latitude
-0.00005°
Longitude
-89.98225°
Altitude
909.861 km
Speed
7.368 km/s
True Right ascension
18h 36m 38s
True Declination
0° 00' 00"
Sunlit
Object was in full shadow at epoch
Visualization orbit readout
Latitude
Unknown
Longitude
Unknown
Altitude
Unknown
Speed
Unknown
Apparent Right ascension
Unknown
Apparent Declination
Unknown
Sunlit
N/A
Visualization observer readout
Local Sidereal Time
07:21:22
Azimuth
Unknown
Elevation
Unknown
Doppler factor
Unknown
Orbital elements
Apogee altitude
904.675 km
Perigee altitude
789.918 km
Semi-major axis
7,225.434 km
Eccentricity
0.00794
Inclination
89.0499°
RAAN
279.1607°
Arg. of periapsis
190.3776°
True anomaly
169.74053°
Mean anomaly
169.5775°
Eccentric anomaly
169.65917°
Mean motion
3.53384 °/min
Orbital period
101.87 mins
BSTAR
0.00025075
Loading maneuver chart data...
Computing Atmospheric mass density...
Loading historical data...
Loading historical data...
Loading historical data...
Loading historical data...
Loading historical data...
Loading historical data...
Loading historical data...

Documentation

Showing up to 5 results
|